Regional Weather Roundup
Issued by NWS Newport/Morehead, NC

Current Version | Previous Version | Text Only | Print | Product List | Glossary Off
Versions: 1 2 3 4 5 6 7 8 9 10 11 12 13 14 15 16 17 18 19 20 21 22 23 24 25 26 27 28 29 30 31 32 33 34 35 36 37 38 39 40 41 42 43 44 45 46 47 48 49 50
771 ASUS42 KMHX 161125 RWRMHX WEATHER ROUNDUP FOR EASTERN NORTH CAROLINA NATIONAL WEATHER SERVICE NEWPORT/MOREHEAD CITY NC 600 AM EST MON JAN 16 2017 NOTE: "FAIR" INDICATES FEW OR NO CLOUDS BELOW 12,000 FEET WITH NO SIGNIFICANT WEATHER AND/OR OBSTRUCTIONS TO VISIBILITY NCZ015>017-031-032-045>047-102-103-161200- NORTH COAST CITY SKY/WX TMP DP RH WIND PRES REMARKS EDENTON CLOUDY 44 35 72 CALM 30.44R ELIZABETH CITY LGT RAIN 42 36 79 NE8 30.43R KITTY HAWK NOT AVBL MANTEO CLOUDY 45 38 77 NE13 30.41R $$ NCZ045>047-081-094-103-104-161200- CENTRAL COAST CITY SKY/WX TMP DP RH WIND PRES REMARKS FRISCO CLOUDY 49 43 80 NE7 30.37R $$ NCZ095-097-098-100-101-161200- SOUTHERN COAST CITY SKY/WX TMP DP RH WIND PRES REMARKS BEAUFORT CLOUDY 46 40 79 NE7 30.39R CEDAR ISLAND NOT AVBL JACKSONVILLE CLOUDY 45 37 73 NE8 30.38R PINEY ISLAND CLOUDY N/A N/A N/A N7 30.40R WILMINGTON CLOUDY 48 41 76 NE8 30.37R $$ NCZ011>013-027>030-043-044-078>080-089-090>093-098-161200- COASTAL PLAIN CITY SKY/WX TMP DP RH WIND PRES REMARKS AHOSKIE N/A 37 32 81 NE6 30.44S CLINTON CLOUDY 46 38 75 NE5 30.39R ELIZABETHTOWN CLOUDY 47 43 86 CALM 30.36R GOLDSBORO CLOUDY 43 43 99 NE3 30.38R GREENVILLE CLOUDY 43 34 70 E6 30.41S HAVELOCK CLOUDY 44 38 79 N9 30.41R KENANSVILLE CLOUDY 43 30 61 E7 30.39R KINSTON CLOUDY 44 36 74 NE8 30.40S NEW BERN CLOUDY 42 39 89 NE7 30.41R RICHLANDS CLOUDY 44 35 70 NE9 30.39R ROCKY MOUNT CLOUDY 42 28 57 NE5 30.41S WASHINGTON CLOUDY 42 35 75 NE5 30.41F WHITEVILLE CLOUDY 49 46 87 NE9 30.34S $$ AMZ130-135-150-152-154-156-158-170-250-252-270-ANZ085-086-088-633-658-670-161200- MARINE OBSERVATIONS STATION/POSITION TIME TEMP WIND PRES WAVE SWELL AIR SEA DIR/SP/G HT/PER HT/PER (UTC) (F) (DEG/KT/KT) (MB) (FT/S) (FT/S) CHESAPEAKE LIGHT NOT AVBL 64 E VA BEACH 1050 49 57 360/ 12/ 16 1029.3 4/ 9 3/ 9 DUCK 1100 45 44 20/ 12/ 15 1029.5 2 E DUCK 1100 45 N/A 3/11 2/11 OREGON INLET 1100 46 48 10/ 13/ 19 1029.3 13E OREGON INLT NOT AVBL HATTERAS CG 1100 47 53 20/ 11/ 15 1028.2 DIAMOND BUOY 1050 57 74 30/ 19/ 23 1027.6 5/ 5 2/10 CAPE LOOKOUT 1100 46 10/ 13/ 17 1028.6 BEAUFORT LAB 1100 45 49 20/ 7/ 10 1028.2 30 SE NEW RVR IN 1108 51 65 50/ 17/ 23 1027.8 30 SE NEW RVR IN 1113 65 N/A 4/ 5 2/11 27 SE WRIGHTSVLE 1108 56 70 70/ 17/ 23 1027.1 5 SE WRIGHTSVLE 1008 49 50/ 16/ 25 1027.6 225 S CAPE HAT 1050 68 71 120/ 2/ 4 1026.3 4/11 3/11 41 SE CHARLESTON 1050 69 71 40/ 6/ 8 1025.1 3/11 3/11 $$

USA.gov is the U.S. government's official web portal to all federal, state and local government web resources and services.